Simultaneous Nadir Overpasses (SNOs) Predictions

Prediction of SNOs between GOES-17 and METOP-C Satellite Orbit:

Table of predicted SNOs for the next 14.0 days since TLE Epoch: 12/28/2019
Index Date Time (GOES-17) GOES-17 Lat,Lon METOP-C Lat,Lon Distance(km) Time Diff (sec)
1 12/28/2019 06:40:31 -0.03,-137.20 -0.15,-137.75 62.27 80
2 12/30/2019 18:40:53 0.04,-137.20 0.03,-137.18 2.08 80
3 01/02/2020 06:38:46 -0.04,-137.20 0.09,-136.66 61.28 80
4 01/03/2020 18:54:38 0.04,-137.19 0.94,-141.14 450.16 80
5 01/04/2020 18:36:27 0.04,-137.18 -0.21,-136.10 124.10 80
6 01/06/2020 06:52:31 -0.04,-137.18 -0.82,-140.62 392.60 80
7 01/07/2020 06:34:20 -0.04,-137.16 0.33,-135.58 181.13 80
8 01/08/2020 18:50:12 0.04,-137.14 0.70,-140.05 331.94 80
9 01/09/2020 18:32:02 0.05,-137.13 -0.45,-135.02 241.27 80




NCC Satellite Simultaneous Nadir Overpasses (SNOs) Prediction Service
